Tiempo atmosférico en la estación meteorológica de Vallehermoso, Alto Igualero, Santa Cruz de Tenerife (1475 m.)



Fecha
DESCASC
Temp. máxima en grados centígrados (hora)
DESCASC
Temp. mínima en grados centígrados (hora)
DESCASC
Temp. media en grados centígrados
DESCASC
Racha de viento máxima en m/sg (hora)
DESCASC
Velocidad máxima media en intervalos de 10 minutos(hora)
DESCASC
Precipitaciones diarias en mm
DESCASC
Precipitaciones de 00:00 a 06:00 en mm
DESCASC
Precipitaciones de 06:00 a 12:00 en mm
DESCASC
Precipitaciones de 12:00 a 18:00 en mm
DESCASC
Precipitaciones de 18:00 a 24:00 en mm
DESCASC
17-09-2020 24.1 (18:30) 20.1 (19:50) 22.1 17.78 (13:00) 12.5 (22:30) 0 0 0 0 0
15-09-2020 24 (01:40) 17.4 (21:40) 20.7 17.78 (21:20) 12.22 (09:10) 0 0 0 0 0
14-09-2020 27.8 (16:10) 15.7 (00:40) 21.7 10.83 (22:00) 7.22 (22:40) 0 0 0 0 0
13-09-2020 23.9 (18:50) 14.5 (00:00) 19.2 10.56 (21:20) 8.61 (08:20) 0 0 0 0 0
12-09-2020 24.1 (16:20) 14.9 (22:20) 19.5 16.94 (12:20) 10.83 (14:10) 0 0 0 0 0
11-09-2020 24.3 (15:20) 18.3 (00:00) 21.3 13.61 (00:20) 10 (02:10) 0 0 0 0 0
10-09-2020 27.8 (12:50) 20.1 (00:00) 23.9 16.39 (04:00) 13.33 (03:40) 0 0 0 0 0
09-09-2020 26.8 (16:40) 20.6 (22:20) 23.7 18.06 (00:30) 13.61 (00:10) 0 0 0 0 0
08-09-2020 28.3 (13:20) 21.7 (00:00) 25 17.78 (23:00) 13.33 (23:20) 0 0 0 0 0
07-09-2020 33.2 (17:20) 18 (08:00) 25.6 13.61 (23:59) 10.56 (23:50) 0.2 0 0.2 0 0
06-09-2020 29.9 (17:10) 17.4 (00:00) 23.6 9.17 (06:00) 8.33 (06:00) 0 0 0 0 0
05-09-2020 28.5 (19:00) 18.8 (00:00) 23.6 10.28 (11:30) 8.33 (19:50) 0 0 0 0 0
04-09-2020 30.5 (15:50) 20.5 (00:00) 25.5 13.33 (15:10) 7.5 (15:00) 0 0 0 0 0
03-09-2020 30.1 (16:50) 21.2 (00:00) 25.7 7.5 (17:40) 5 (22:10) 0 0 0 0 0
02-09-2020 31.2 (18:50) 20.1 (00:00) 25.7 6.67 (16:00) 4.44 (17:30) 0 0 0 0 0
01-09-2020 27.4 (19:00) 8.8 (00:00) 18.1 10.83 (00:10) 8.89 (00:20) 0 0 0 0 0
31-08-2020 18.7 (16:10) 9.5 (00:00) 14.1 17.78 (01:50) 13.89 (00:10) 0.2 0 0.2 0 0
30-08-2020 11.8 (00:00) 9.3 (00:00) 10.6 21.67 (05:20) 15.56 (06:00) 2.2 0.4 1.6 0 0.2
29-08-2020 21.9 (01:50) 10.9 (00:00) 16.4 21.67 (13:40) 15.83 (14:20) 0.2 0 0 0 0.2
28-08-2020 28.5 (12:30) 20.8 (00:00) 24.6 20 (09:20) 14.72 (08:20) 0 0 0 0 0
27-08-2020 33.2 (13:20) 24.6 (00:00) 28.9 14.17 (22:10) 10.83 (22:10) 0 0 0 0 0
26-08-2020 31.3 (13:50) 25.7 (00:00) 28.5 17.78 (08:00) 11.67 (08:10) 0 0 0 0 0
25-08-2020 33.9 (16:20) 18 (00:00) 26 16.39 (00:30) 13.33 (00:50) 0 0 0 0 0
24-08-2020 26.7 (11:20) 16.6 (07:40) 21.7 16.67 (22:50) 12.78 (22:50) 0 0 0 0 0
23-08-2020 27 (14:50) 21.8 (00:00) 24.4 20 (01:40) 15 (01:40) 0 0 0 0 0
22-08-2020 35.2 (14:30) 22.6 (00:00) 28.9 19.44 (23:50) 14.44 (23:20) 0 0 0 0 0
21-08-2020 32 (16:50) 22 (05:10) 27 9.72 (21:10) 8.06 (21:50) 0 0 0 0 0

Gráficas

Temp. máximas Temp. mínimas Temp. medias Precipitaciones Rachas de viento máximas Velocidades máximas media en intervalos de 10 minutos

Datos horarios

Fecha y hora oficial Temperatura (ºC) Velocidad del viento (km/h) Dirección del viento Racha (km/h) Dirección de racha Precipitación (mm) Presión (hPa) Tendencia (hPa) Humedad (%)
2020-09-19 23:00:00 21.8 15 Norte 18 Norte 0 -- -- 22
2020-09-19 22:00:00 21.6 14 Norte 17 Noroeste 0 -- -- 21
2020-09-19 21:00:00 21.7 13 Noroeste 15 Noroeste 0 -- -- 21
2020-09-19 20:00:00 22.2 12 Norte 17 Noroeste 0 -- -- 21
2020-09-19 19:00:00 27.1 12 Noroeste 18 Noroeste 0 -- -- 29
2020-09-19 18:00:00 28.1 13 Oeste 21 Oeste 0 -- -- 39
2020-09-19 17:00:00 27.6 8 Oeste 17 Noroeste 0 -- -- 42
2020-09-19 16:00:00 27.9 8 Oeste 19 Oeste 0 -- -- 42
2020-09-19 15:00:00 27.3 7 Oeste 19 Oeste 0 -- -- 40
2020-09-19 14:00:00 27.6 8 Oeste 15 Oeste 0 -- -- 25
2020-09-19 13:00:00 26.5 7 Oeste 14 Oeste 0 -- -- 34
2020-09-19 12:00:00 26 8 Oeste 14 Noroeste 0 -- -- 26
2020-09-19 11:00:00 24.5 4 Noroeste 11 Oeste 0 -- -- 21
2020-09-19 10:00:00 22.1 6 Norte 8 Norte 0 -- -- 25
2020-09-19 09:00:00 21.5 3 Noroeste 6 Norte 0 -- -- 26
2020-09-19 08:00:00 21 2 Noroeste 12 Norte 0 -- -- 27
2020-09-19 07:00:00 20.6 12 Norte 14 Norte 0 -- -- 28
2020-09-19 06:00:00 20.4 11 Norte 13 Norte 0 -- -- 28
2020-09-19 05:00:00 20.8 12 Norte 13 Norte 0 -- -- 27
2020-09-19 04:00:00 20.9 9 Norte 12 Norte 0 -- -- 12
2020-09-19 03:00:00 20.9 9 Norte 12 Norte 0 -- -- 17
2020-09-19 02:00:00 20.5 9 Nordeste 17 Nordeste 0 -- -- 6
2020-09-19 01:00:00 19 15 Nordeste 22 Nordeste 0 -- -- 13
2020-09-19 00:00:00 19.2 16 Nordeste 19 Nordeste 0 -- -- 12
2020-09-18 23:00:00 19.7 8 Norte 21 Norte 0 -- -- 13
2020-09-18 22:00:00 19.9 19 Norte 22 Norte 0 -- -- 12
2020-09-18 21:00:00 20.4 19 Norte 24 Noroeste 0 -- -- 16
2020-09-18 20:00:00 21.4 23 Noroeste 27 Noroeste 0 -- -- 16
2020-09-18 19:00:00 24.6 21 Noroeste 29 Noroeste 0 -- -- 14
2020-09-18 18:00:00 25.4 18 Oeste 30 Oeste 0 -- -- 33
2020-09-18 17:00:00 26.5 15 Noroeste 24 Noroeste 0 -- -- 32
2020-09-18 16:00:00 25.4 11 Oeste 18 Noroeste 0 -- -- 45
2020-09-18 15:00:00 25.2 9 Oeste 22 Oeste 0 -- -- 44
2020-09-18 14:00:00 24.2 13 Oeste 22 Noroeste 0 -- -- 49
2020-09-18 13:00:00 23.5 15 Oeste 23 Oeste 0 -- -- 49
2020-09-18 12:00:00 23.2 15 Oeste 22 Oeste 0 -- -- 31
2020-09-18 11:00:00 22.9 12 Oeste 15 Sudoeste 0 -- -- 6
2020-09-18 10:00:00 21.9 6 Sudoeste 15 Oeste 0 -- -- 14
2020-09-18 09:00:00 21.4 15 Oeste 21 Oeste 0 -- -- 8
2020-09-18 08:00:00 19.1 19 Oeste 22 Noroeste 0 -- -- 27
2020-09-18 07:00:00 20.3 21 Noroeste 24 Noroeste 0 -- -- 15
2020-09-18 06:00:00 20.5 14 Noroeste 30 Noroeste 0 -- -- 18
2020-09-18 05:00:00 21.5 26 Noroeste 34 Noroeste 0 -- -- 18
2020-09-18 04:00:00 20.9 26 Noroeste 35 Noroeste 0 -- -- 17
2020-09-18 03:00:00 21 28 Noroeste 39 Noroeste 0 -- -- 22
2020-09-18 02:00:00 21 32 Noroeste 41 Noroeste 0 -- -- 32
2020-09-18 01:00:00 20.8 35 Noroeste 51 Noroeste 0 -- -- 35
2020-09-18 00:00:00 21 39 Noroeste 51 Noroeste 0 -- -- 38
2020-09-17 23:00:00 20.8 40 Noroeste 53 Noroeste 0 -- -- 37
2020-09-17 22:00:00 20.5 43 Noroeste 52 Noroeste 0 -- -- 39
2020-09-17 21:00:00 20.5 39 Noroeste 47 Noroeste 0 -- -- 39
2020-09-17 20:00:00 20.1 39 Noroeste 48 Noroeste 0 -- -- 36
2020-09-17 19:00:00 23.2 35 Noroeste 51 Noroeste 0 -- -- 36
2020-09-17 18:00:00 23.4 35 Noroeste 46 Noroeste 0 -- -- 39
2020-09-17 17:00:00 23.3 30 Oeste 52 Oeste 0 -- -- 40
2020-09-17 16:00:00 23.6 37 Noroeste 55 Oeste 0 -- -- 40
2020-09-17 15:00:00 21.6 41 Oeste 60 Oeste 0 -- -- 44
2020-09-17 14:00:00 22.6 37 Noroeste 59 Oeste 0 -- -- 41
2020-09-17 13:00:00 23.3 41 Oeste 64 Oeste 0 -- -- 39
2020-09-17 12:00:00 22.6 40 Oeste 59 Oeste 0 -- -- 40
2020-09-17 11:00:00 21.3 39 Noroeste 54 Noroeste 0 -- -- 43
2020-09-17 10:00:00 20.5 38 Noroeste 51 Noroeste 0 -- -- 46
2020-09-17 09:00:00 20.4 39 Noroeste 50 Noroeste 0 -- -- 46
2020-09-17 08:00:00 20.4 33 Noroeste 46 Noroeste 0 -- -- 45
2020-09-17 07:00:00 20.5 37 Noroeste 51 Noroeste 0 -- -- 44
2020-09-17 06:00:00 20.9 37 Noroeste 55 Noroeste 0 -- -- 43
2020-09-17 05:00:00 20.6 43 Noroeste 54 Noroeste 0 -- -- 45
2020-09-17 04:00:00 20.3 35 Noroeste 42 Noroeste 0 -- -- 48
2020-09-17 03:00:00 20.4 32 Noroeste 36 Noroeste 0 -- -- 49
2020-09-17 02:00:00 20.7 25 Norte 40 Noroeste 0 -- -- 47
2020-09-17 01:00:00 21.3 30 Noroeste 46 Norte 0 -- -- 45
2020-09-17 00:00:00 21.2 32 Noroeste 41 Noroeste 0 -- -- 46
2020-09-16 23:00:00 20.8 32 Norte 41 Noroeste 0 -- -- 47
2020-09-16 22:00:00 21.2 24 Noroeste 34 Noroeste 0 -- -- 46
2020-09-16 21:00:00 20.8 25 Noroeste 34 Noroeste 0 -- -- 48
2020-09-16 20:00:00 20.8 22 Norte 27 Norte 0 -- -- 48
2020-09-16 19:00:00 21.7 22 Noroeste 35 Noroeste 0 -- -- 46
2020-09-16 18:00:00 22.2 29 Noroeste 39 Noroeste 0 -- -- 45
2020-09-16 17:00:00 23.6 24 Noroeste 38 Noroeste 0 -- -- 41
2020-09-16 16:00:00 23.4 17 Noroeste 33 Noroeste 0 -- -- 45
2020-09-16 15:00:00 22.3 14 Noroeste 34 Nordeste 0 -- -- 44
2020-09-16 14:00:00 20.8 16 Norte 36 Nordeste 0 -- -- 52
2020-09-16 13:00:00 19.5 25 Nordeste 33 Nordeste 0 -- -- 56
2020-09-16 12:00:00 23.1 7 Norte 37 Nordeste 0 -- -- 41
2020-09-16 11:00:00 19.2 26 Nordeste 45 Nordeste 0 -- -- 56
2020-09-16 10:00:00 18.1 26 Nordeste 48 Este 0 -- -- 60
2020-09-16 09:00:00 17.1 37 Nordeste 53 Nordeste 0 -- -- 61
2020-09-16 08:00:00 17 43 Nordeste 57 Nordeste 0 -- -- 60
2020-09-16 07:00:00 16.6 40 Nordeste 66 Nordeste 0 -- -- 61
2020-09-16 06:00:00 16.7 43 Nordeste 69 Nordeste 0 -- -- 60
2020-09-16 05:00:00 16.7 48 Nordeste 67 Nordeste 0 -- -- 59
2020-09-16 04:00:00 17.2 45 Nordeste 68 Nordeste 0 -- -- 55
2020-09-16 03:00:00 17.3 45 Nordeste 67 Nordeste 0 -- -- 54
2020-09-16 02:00:00 17.5 47 Nordeste 69 Nordeste 0 -- -- 50
2020-09-16 01:00:00 17.8 45 Nordeste 66 Nordeste 0 -- -- 48
2020-09-16 00:00:00 18 42 Nordeste 61 Nordeste 0 -- -- 47
2020-09-15 23:00:00 17.8 44 Nordeste 60 Nordeste 0 -- -- 45
2020-09-15 22:00:00 17.7 42 Nordeste 64 Nordeste 0 -- -- 46
2020-09-15 21:00:00 18.1 43 Nordeste 63 Norte 0 -- -- 48
2020-09-15 20:00:00 18.2 39 Nordeste 59 Nordeste 0 -- -- 51
2020-09-15 19:00:00 18.8 35 Nordeste 50 Nordeste 0 -- -- 46
2020-09-15 18:00:00 20.1 34 Norte 45 Nordeste 0 -- -- 42
2020-09-15 17:00:00 20.9 30 Norte 46 Nordeste 0 -- -- 42
2020-09-15 16:00:00 21.4 33 Norte 52 Norte 0 -- -- 43
2020-09-15 15:00:00 21.7 34 Norte 50 Norte 0 -- -- 43
2020-09-15 14:00:00 21.4 32 Norte 49 Nordeste 0 -- -- 43
2020-09-15 13:00:00 21.7 31 Nordeste 45 Norte 0 -- -- 39
2020-09-15 12:00:00 21.4 30 Norte 50 Norte 0 -- -- 37
2020-09-15 11:00:00 21.9 34 Norte 56 Norte 0 -- -- 37
2020-09-15 10:00:00 21 39 Norte 57 Norte 0 -- -- 38
2020-09-15 09:00:00 20.4 43 Norte 57 Norte 0 -- -- 34
2020-09-15 08:00:00 19.8 37 Norte 50 Norte 0 -- -- 37
2020-09-15 07:00:00 18.9 33 Nordeste 43 Norte 0 -- -- 36
2020-09-15 06:00:00 20.5 32 Norte 40 Norte 0 -- -- 25
2020-09-15 05:00:00 21.7 28 Noroeste 30 Noroeste 0 -- -- 21
2020-09-15 04:00:00 22.6 19 Noroeste 24 Noroeste 0 -- -- 27
2020-09-15 03:00:00 23.4 19 Noroeste 25 Noroeste 0 -- -- 34
2020-09-15 02:00:00 23.5 15 Oeste 40 Noroeste 0 -- -- 33
2020-09-15 01:00:00 22.9 20 Noroeste 28 Oeste 0 -- -- 21
2020-09-15 00:00:00 21.8 24 Oeste 33 Sudoeste 0 -- -- 14
2020-09-14 23:00:00 22.7 26 Oeste 34 Oeste 0 -- -- 21
2020-09-14 22:00:00 23.4 23 Oeste 39 Oeste 0 -- -- 20
2020-09-14 21:00:00 22.7 12 Oeste 21 Oeste 0 -- -- 11
2020-09-14 20:00:00 21 9 Oeste 19 Sudoeste 0 -- -- 33
2020-09-14 19:00:00 21.8 11 Noroeste 19 Sudoeste 0 -- -- 32
2020-09-14 18:00:00 23.3 14 Noroeste 24 Noroeste 0 -- -- 37
2020-09-14 17:00:00 26.4 13 Noroeste 24 Oeste 0 -- -- 43
2020-09-14 16:00:00 27.5 12 Oeste 24 Oeste 0 -- -- 38
2020-09-14 15:00:00 25.7 14 Oeste 27 Noroeste 0 -- -- 44
2020-09-14 14:00:00 26.2 15 Oeste 29 Oeste 0 -- -- 40
2020-09-14 13:00:00 25.4 13 Oeste 31 Oeste 0 -- -- 30
2020-09-14 12:00:00 22.9 18 Oeste 26 Oeste 0 -- -- 17
2020-09-14 11:00:00 21.1 16 Noroeste 24 Oeste 0 -- -- 24
2020-09-14 10:00:00 19.3 18 Oeste 25 Oeste 0 -- -- 28
2020-09-14 09:00:00 17.8 15 Noroeste 20 Oeste 0 -- -- 42
2020-09-14 08:00:00 16.8 16 Noroeste 20 Oeste 0 -- -- 41
2020-09-14 07:00:00 16.9 19 Oeste 20 Oeste 0 -- -- 41
2020-09-14 06:00:00 16.8 17 Oeste 22 Oeste 0 -- -- 42
2020-09-14 05:00:00 16.6 19 Oeste 24 Oeste 0 -- -- 45
2020-09-14 04:00:00 16.6 21 Noroeste 27 Oeste 0 -- -- 45
2020-09-14 03:00:00 16.5 21 Noroeste 26 Oeste 0 -- -- 45
2020-09-14 02:00:00 16.5 22 Oeste 28 Oeste 0 -- -- 39
2020-09-14 01:00:00 16.2 21 Oeste 27 Oeste 0 -- -- 41
2020-09-14 00:00:00 16 25 Oeste 32 Oeste 0 -- -- 40
2020-09-13 23:00:00 15.3 22 Noroeste 33 Oeste 0 -- -- 57
2020-09-13 22:00:00 15 27 Oeste 38 Oeste 0 -- -- 66
2020-09-13 21:00:00 15 30 Oeste 37 Oeste 0 -- -- 66
2020-09-13 20:00:00 17.3 25 Oeste 33 Oeste 0 -- -- 61
2020-09-13 19:00:00 22.6 21 Oeste 31 Oeste 0 -- -- 47
2020-09-13 18:00:00 21.8 22 Oeste 33 Sudoeste 0 -- -- 50
2020-09-13 17:00:00 21.7 20 Oeste 31 Noroeste 0 -- -- 55
2020-09-13 16:00:00 21.4 17 Oeste 31 Oeste 0 -- -- 63
2020-09-13 15:00:00 20.8 22 Oeste 32 Sudoeste 0 -- -- 59
2020-09-13 14:00:00 20.9 23 Sudoeste 31 Sudoeste 0 -- -- 53
2020-09-13 13:00:00 19.8 19 Oeste 26 Oeste 0 -- -- 55
2020-09-13 12:00:00 19.6 12 Sudoeste 22 Oeste 0 -- -- 64
2020-09-13 11:00:00 18.2 12 Sudoeste 25 Sudoeste 0 -- -- 63
2020-09-13 10:00:00 16.6 15 Sudoeste 24 Oeste 0 -- -- 58
2020-09-13 09:00:00 15.9 20 Oeste 33 Oeste 0 -- -- 61
2020-09-13 08:00:00 15.1 29 Oeste 35 Oeste 0 -- -- 62
2020-09-13 07:00:00 15.5 26 Oeste 31 Oeste 0 -- -- 61
2020-09-13 06:00:00 15.2 23 Oeste 32 Oeste 0 -- -- 57
2020-09-13 05:00:00 15.4 24 Oeste 32 Oeste 0 -- -- 55
2020-09-13 04:00:00 15.1 18 Oeste 34 Oeste 0 -- -- 59
2020-09-13 03:00:00 15.4 26 Oeste 33 Noroeste 0 -- -- 56
2020-09-13 02:00:00 15.8 27 Noroeste 33 Noroeste 0 -- -- 52
2020-09-13 01:00:00 16.1 22 Oeste 30 Oeste 0 -- -- 55
2020-09-13 00:00:00 16.5 26 Noroeste 37 Oeste 0 -- -- 54
2020-09-12 23:00:00 15.8 22 Oeste 47 Oeste 0 -- -- 65
2020-09-12 22:00:00 16.3 31 Oeste 47 Noroeste 0 -- -- 63
2020-09-12 21:00:00 16.4 31 Noroeste 46 Oeste 0 -- -- 60
2020-09-12 20:00:00 16.8 30 Noroeste 46 Noroeste 0 -- -- 57
2020-09-12 19:00:00 17.9 26 Noroeste 39 Noroeste 0 -- -- 56
2020-09-12 18:00:00 19.2 14 Noroeste 28 Oeste 0 -- -- 65
2020-09-12 17:00:00 20.7 10 Oeste 36 Oeste 0 -- -- 63
2020-09-12 16:00:00 21.4 21 Oeste 47 Noroeste 0 -- -- 49
2020-09-12 15:00:00 22.2 29 Oeste 56 Noroeste 0 -- -- 47
2020-09-12 14:00:00 22.1 37 Oeste 56 Oeste 0 -- -- 43
2020-09-12 13:00:00 21.9 27 Noroeste 61 Oeste 0 -- -- 46
2020-09-12 12:00:00 21.1 29 Noroeste 44 Noroeste 0 -- -- 43
2020-09-12 11:00:00 19.7 24 Noroeste 39 Noroeste 0 -- -- 53
2020-09-12 10:00:00 19 25 Noroeste 35 Noroeste 0 -- -- 34
2020-09-12 09:00:00 17.8 25 Noroeste 32 Noroeste 0 -- -- 30
2020-09-12 08:00:00 17.7 20 Noroeste 31 Oeste 0 -- -- 28
2020-09-12 07:00:00 18 16 Oeste 22 Noroeste 0 -- -- 36
2020-09-12 06:00:00 19.3 17 Noroeste 28 Noroeste 0 -- -- 27
2020-09-12 05:00:00 19.5 21 Noroeste 33 Noroeste 0 -- -- 31
2020-09-12 04:00:00 18.8 31 Noroeste 35 Noroeste 0 -- -- 38
2020-09-12 03:00:00 18.2 33 Noroeste 39 Noroeste 0 -- -- 44
2020-09-12 02:00:00 19 34 Noroeste 41 Noroeste 0 -- -- 43
2020-09-12 01:00:00 18.2 32 Noroeste 36 Noroeste 0 -- -- 48
2020-09-12 00:00:00 18.8 26 Noroeste 41 Noroeste 0 -- -- 47
2020-09-11 23:00:00 18.6 31 Noroeste 37 Noroeste 0 -- -- 44
2020-09-11 22:00:00 19.4 30 Noroeste 35 Noroeste 0 -- -- 40
2020-09-11 21:00:00 20 22 Norte 30 Norte 0 -- -- 38
2020-09-11 20:00:00 21.1 26 Norte 34 Norte 0 -- -- 40
2020-09-11 19:00:00 20.8 22 Norte 28 Norte 0 -- -- 34
2020-09-11 18:00:00 21.9 18 Norte 32 Norte 0 -- -- 31
2020-09-11 17:00:00 21.9 22 Norte 41 Noroeste 0 -- -- 32
2020-09-11 16:00:00 24.3 18 Norte 30 Nordeste 0 -- -- 30
2020-09-11 15:00:00 23.7 17 Nordeste 36 Nordeste 0 -- -- 36
2020-09-11 14:00:00 23.4 18 Nordeste 42 Este 0 -- -- 36
2020-09-11 13:00:00 21.9 27 Nordeste 41 Nordeste 0 -- -- 35
2020-09-11 12:00:00 21.8 25 Nordeste 45 Nordeste 0 -- -- 36
2020-09-11 11:00:00 20.4 30 Nordeste 44 Nordeste 0 -- -- 34
2020-09-11 10:00:00 19.6 28 Nordeste 41 Nordeste 0 -- -- 24
2020-09-11 09:00:00 20.2 27 Nordeste 37 Nordeste 0 -- -- 21
2020-09-11 08:00:00 19.8 28 Nordeste 34 Nordeste 0 -- -- 24
2020-09-11 07:00:00 19.5 30 Nordeste 37 Nordeste 0 -- -- 25
2020-09-11 06:00:00 19.4 32 Nordeste 41 Nordeste 0 -- -- 25
2020-09-11 05:00:00 20.4 32 Nordeste 41 Nordeste 0 -- -- 28
2020-09-11 04:00:00 20.6 32 Nordeste 44 Nordeste 0 -- -- 26
2020-09-11 03:00:00 20.7 36 Nordeste 49 Nordeste 0 -- -- 27
2020-09-11 02:00:00 20.9 35 Nordeste 47 Nordeste 0 -- -- 25
2020-09-11 01:00:00 21.4 35 Nordeste 49 Nordeste 0 -- -- 25
2020-09-11 00:00:00 21.4 34 Nordeste 49 Nordeste 0 -- -- 25
2020-09-10 23:00:00 20.4 36 Nordeste 46 Nordeste 0 -- -- 18
2020-09-10 22:00:00 20.4 34 Nordeste 45 Nordeste 0 -- -- 18
2020-09-10 21:00:00 21.2 33 Nordeste 42 Nordeste 0 -- -- 18
2020-09-10 20:00:00 22.3 27 Nordeste 36 Nordeste 0 -- -- 31
2020-09-10 19:00:00 24.9 27 Nordeste 40 Nordeste 0 -- -- 28
2020-09-10 18:00:00 24.4 26 Nordeste 39 Nordeste 0 -- -- 25
2020-09-10 17:00:00 25.4 25 Nordeste 45 Nordeste 0 -- -- 24
2020-09-10 16:00:00 26.2 27 Nordeste 47 Nordeste 0 -- -- 22
2020-09-10 15:00:00 26.5 27 Nordeste 45 Este 0 -- -- 18
2020-09-10 14:00:00 27.2 21 Nordeste 36 Nordeste 0 -- -- 24
2020-09-10 13:00:00 27.7 21 Nordeste 37 Nordeste 0 -- -- 27
2020-09-10 12:00:00 26.1 24 Nordeste 45 Este 0 -- -- 24
2020-09-10 11:00:00 24.5 30 Nordeste 51 Nordeste 0 -- -- 25
2020-09-10 10:00:00 23.1 32 Nordeste 49 Nordeste 0 -- -- 25
2020-09-10 09:00:00 21.7 37 Nordeste 53 Nordeste 0 -- -- 29
2020-09-10 08:00:00 20.7 41 Nordeste 54 Nordeste 0 -- -- 27
2020-09-10 07:00:00 20.2 39 Nordeste 56 Este 0 -- -- 32
2020-09-10 06:00:00 20.4 40 Nordeste 54 Nordeste 0 -- -- 37
2020-09-10 05:00:00 20.4 40 Nordeste 57 Nordeste 0 -- -- 37
2020-09-10 04:00:00 20.4 45 Nordeste 59 Nordeste 0 -- -- 34
2020-09-10 03:00:00 20.5 42 Nordeste 55 Nordeste 0 -- -- 25
2020-09-10 02:00:00 20.8 41 Nordeste 51 Nordeste 0 -- -- 23
2020-09-10 01:00:00 20.7 37 Nordeste 51 Nordeste 0 -- -- 21
2020-09-10 00:00:00 20.7 37 Nordeste 51 Nordeste 0 -- -- 22
2020-09-09 23:00:00 20.8 35 Nordeste 53 Nordeste 0 -- -- 30
2020-09-09 22:00:00 20.9 37 Nordeste 51 Nordeste 0 -- -- 31
2020-09-09 21:00:00 21.2 40 Nordeste 55 Nordeste 0 -- -- 29
2020-09-09 20:00:00 22.6 41 Nordeste 54 Nordeste 0 -- -- 27
2020-09-09 19:00:00 25.7 32 Nordeste 46 Nordeste 0 -- -- 20
2020-09-09 18:00:00 25.8 25 Nordeste 36 Nordeste 0 -- -- 24
2020-09-09 17:00:00 26.1 26 Nordeste 41 Nordeste 0 -- -- 24
2020-09-09 16:00:00 26.5 28 Nordeste 45 Nordeste 0 -- -- 22
2020-09-09 15:00:00 25.8 33 Nordeste 54 Nordeste 0 -- -- 20
2020-09-09 14:00:00 25.8 36 Nordeste 53 Nordeste 0 -- -- 19
2020-09-09 13:00:00 25.3 36 Nordeste 55 Este 0 -- -- 18
2020-09-09 12:00:00 25 35 Nordeste 54 Nordeste 0 -- -- 21
2020-09-09 11:00:00 23.8 36 Nordeste 62 Nordeste 0 -- -- 20
2020-09-09 10:00:00 22.7 41 Nordeste 56 Nordeste 0 -- -- 22
2020-09-09 09:00:00 22.3 39 Nordeste 54 Nordeste 0 -- -- 23
2020-09-09 08:00:00 21.3 44 Nordeste 62 Nordeste 0 -- -- 23
2020-09-09 07:00:00 21.2 44 Nordeste 59 Nordeste 0 -- -- 23
2020-09-09 06:00:00 21.1 45 Nordeste 58 Nordeste 0 -- -- 23
2020-09-09 05:00:00 21.6 46 Nordeste 59 Nordeste 0 -- -- 22
2020-09-09 04:00:00 21.7 46 Nordeste 61 Nordeste 0 -- -- 22
2020-09-09 03:00:00 21.8 46 Nordeste 60 Nordeste 0 -- -- 26
2020-09-09 02:00:00 21.9 46 Nordeste 64 Nordeste 0 -- -- 27
2020-09-09 01:00:00 21.7 46 Nordeste 65 Este 0 -- -- 23
2020-09-09 00:00:00 22.2 47 Nordeste 64 Este 0 -- -- 28
2020-09-08 23:00:00 22.2 46 Nordeste 64 Nordeste 0 -- -- 33
2020-09-08 22:00:00 22.5 45 Nordeste 59 Nordeste 0 -- -- 36
2020-09-08 21:00:00 22.6 42 Nordeste 57 Nordeste 0 -- -- 39
2020-09-08 20:00:00 23.1 43 Nordeste 62 Nordeste 0 -- -- 35
2020-09-08 19:00:00 24.9 39 Nordeste 54 Nordeste 0 -- -- 29
2020-09-08 18:00:00 25.2 36 Nordeste 58 Este 0 -- -- 32
2020-09-08 17:00:00 25.6 39 Nordeste 61 Nordeste 0 -- -- 32
2020-09-08 16:00:00 25.7 41 Nordeste 64 Nordeste 0 -- -- 29
2020-09-08 15:00:00 26.2 33 Nordeste 46 Nordeste 0 -- -- 26
2020-09-08 14:00:00 26.9 28 Nordeste 39 Nordeste 0 -- -- 26
2020-09-08 13:00:00 27.3 23 Este 38 Este 0 -- -- 29
2020-09-08 12:00:00 26.6 30 Este 49 Este 0 -- -- 29
2020-09-08 11:00:00 25.3 33 Este 46 Nordeste 0 -- -- 32
2020-09-08 10:00:00 24.8 28 Nordeste 41 Nordeste 0 -- -- 32
2020-09-08 09:00:00 23.3 33 Nordeste 55 Nordeste 0 -- -- 33
2020-09-08 08:00:00 22.8 39 Nordeste 57 Nordeste 0 -- -- 34
2020-09-08 07:00:00 22.2 42 Nordeste 54 Nordeste 0 -- -- 36
2020-09-08 06:00:00 22.3 37 Nordeste 49 Nordeste 0 -- -- 41
2020-09-08 05:00:00 21.8 33 Nordeste 49 Nordeste 0 -- -- 44
2020-09-08 04:00:00 21.9 37 Nordeste 49 Nordeste 0 -- -- 46
2020-09-08 03:00:00 22.1 38 Nordeste 51 Nordeste 0 -- -- 47
2020-09-08 02:00:00 22 36 Nordeste 46 Nordeste 0 -- -- 48
2020-09-08 01:00:00 21.8 36 Nordeste 45 Nordeste 0 -- -- 48
2020-09-08 00:00:00 21.9 36 Nordeste 49 Nordeste 0 -- -- 48
2020-09-07 23:00:00 21.9 35 Nordeste 44 Nordeste 0 -- -- 48
2020-09-07 22:00:00 22 31 Nordeste 39 Nordeste 0 -- -- 48
2020-09-07 21:00:00 22 25 Nordeste 32 Nordeste 0 -- -- 48
2020-09-07 20:00:00 22.8 19 Nordeste 24 Este 0 -- -- 46
2020-09-07 19:00:00 27.4 11 Nordeste 17 Nordeste 0 -- -- 39
2020-09-07 18:00:00 31.1 4 Norte 17 Sudoeste 0 -- -- 34
2020-09-07 17:00:00 32.6 6 Oeste 17 Oeste 0 -- -- 32
2020-09-07 16:00:00 31.8 6 Sudoeste 30 Oeste 0 -- -- 32
2020-09-07 15:00:00 30.7 15 Oeste 26 Sudoeste 0 -- -- 33
2020-09-07 14:00:00 30.6 9 Sudoeste 20 Sur 0 -- -- 33
2020-09-07 13:00:00 28.5 15 Sudoeste 25 Sudoeste 0 -- -- 35
2020-09-07 12:00:00 25.3 12 Sudoeste 25 Sudoeste 0 -- -- 42
2020-09-07 11:00:00 24.3 18 Sudoeste 30 Oeste 0 -- -- 44
2020-09-07 10:00:00 23 17 Oeste 30 Oeste 0 -- -- 47
2020-09-07 09:00:00 20.3 23 Oeste 30 Oeste 0 -- -- 57
2020-09-07 08:00:00 18 16 Sur 34 Sur 0.2 -- -- 74
2020-09-07 07:00:00 19.9 24 Sur 38 Sur 0 -- -- 62
2020-09-07 06:00:00 20.5 25 Sur 36 Sur 0 -- -- 57
2020-09-07 05:00:00 20.4 26 Sur 43 Sur 0 -- -- 47
2020-09-07 04:00:00 21.2 24 Sudeste 36 Sur 0 -- -- 23
2020-09-07 03:00:00 21.1 22 Sur 26 Sur 0 -- -- 20
2020-09-07 02:00:00 21 13 Sudeste 23 Sudeste 0 -- -- 21
2020-09-07 01:00:00 20 15 Sudeste 22 Sur 0 -- -- 30
2020-09-07 00:00:00 22 18 Oeste 20 Oeste 0 -- -- 18
2020-09-06 23:00:00 21.8 13 Oeste 19 Oeste 0 -- -- 19
2020-09-06 22:00:00 21.9 18 Oeste 20 Oeste 0 -- -- 22
2020-09-06 21:00:00 20.8 17 Sudoeste 20 Sudoeste 0 -- -- 25
2020-09-06 20:00:00 24.3 10 Sudoeste 19 Oeste 0 -- -- 27
2020-09-06 19:00:00 29.9 13 Oeste 23 Sudoeste 0 -- -- 19
2020-09-06 18:00:00 28.6 16 Oeste 26 Sudoeste 0 -- -- 25
2020-09-06 17:00:00 29.5 14 Oeste 23 Oeste 0 -- -- 25
2020-09-06 16:00:00 27.2 13 Sudoeste 24 Oeste 0 -- -- 27
2020-09-06 15:00:00 26.3 12 Sudoeste 26 Sudoeste 0 -- -- 26
2020-09-06 14:00:00 26.3 14 Oeste 23 Oeste 0 -- -- 26
2020-09-06 13:00:00 25.3 16 Oeste 24 Oeste 0 -- -- 27
2020-09-06 12:00:00 23.3 16 Oeste 28 Oeste 0 -- -- 31
2020-09-06 11:00:00 22.4 18 Oeste 30 Oeste 0 -- -- 27
2020-09-06 10:00:00 19.7 12 Oeste 24 Oeste 0 -- -- 33
2020-09-06 09:00:00 18.3 19 Noroeste 30 Oeste 0 -- -- 29
2020-09-06 08:00:00 17.7 22 Oeste 32 Oeste 0 -- -- 32
2020-09-06 07:00:00 17.6 23 Oeste 30 Oeste 0 -- -- 33
2020-09-06 06:00:00 17.7 30 Oeste 33 Oeste 0 -- -- 30
2020-09-06 05:00:00 17.5 25 Oeste 31 Oeste 0 -- -- 31
2020-09-06 04:00:00 18.5 26 Sudoeste 31 Oeste 0 -- -- 28
2020-09-06 03:00:00 18.8 25 Sudoeste 29 Sudoeste 0 -- -- 26
2020-09-06 02:00:00 18.8 22 Sudoeste 26 Sudoeste 0 -- -- 26
2020-09-06 01:00:00 19.1 16 Oeste 21 Oeste 0 -- -- 23
2020-09-06 00:00:00 19.2 16 Oeste 27 Noroeste 0 -- -- 20
2020-09-05 23:00:00 18.9 22 Noroeste 27 Noroeste 0 -- -- 20
2020-09-05 22:00:00 19.3 22 Noroeste 28 Noroeste 0 -- -- 19
2020-09-05 21:00:00 19.9 20 Noroeste 35 Oeste 0 -- -- 19
2020-09-05 20:00:00 24.5 26 Oeste 36 Oeste 0 -- -- 15
2020-09-05 19:00:00 28.5 25 Oeste 36 Oeste 0 -- -- 12
2020-09-05 18:00:00 26.8 23 Oeste 36 Oeste 0 -- -- 20
2020-09-05 17:00:00 26.8 21 Oeste 35 Oeste 0 -- -- 22
2020-09-05 16:00:00 25.7 20 Oeste 32 Oeste 0 -- -- 28
2020-09-05 15:00:00 25 19 Oeste 34 Oeste 0 -- -- 29
2020-09-05 14:00:00 24.9 23 Oeste 36 Oeste 0 -- -- 24
2020-09-05 13:00:00 23.2 24 Oeste 36 Oeste 0 -- -- 29
2020-09-05 12:00:00 23.2 26 Oeste 37 Oeste 0 -- -- 28
2020-09-05 11:00:00 22.4 27 Oeste 36 Sudoeste 0 -- -- 28
2020-09-05 10:00:00 21.3 26 Oeste 34 Sudoeste 0 -- -- 30
2020-09-05 09:00:00 20.9 25 Sudoeste 34 Sudoeste 0 -- -- 32
2020-09-05 08:00:00 20.9 28 Sudoeste 34 Sudoeste 0 -- -- 36
2020-09-05 07:00:00 21.2 27 Oeste 32 Oeste 0 -- -- 33
2020-09-05 06:00:00 21.6 23 Oeste 32 Oeste 0 -- -- 36
2020-09-05 05:00:00 21.7 21 Oeste 24 Oeste 0 -- -- 37
2020-09-05 04:00:00 22 18 Oeste 22 Oeste 0 -- -- 36
2020-09-05 03:00:00 22.4 19 Oeste 23 Oeste 0 -- -- 36
2020-09-05 02:00:00 22.4 20 Noroeste 27 Noroeste 0 -- -- 35
2020-09-05 01:00:00 22.5 22 Noroeste 25 Noroeste 0 -- -- 34
2020-09-05 00:00:00 22.8 23 Noroeste 27 Noroeste 0 -- -- 33
2020-09-04 23:00:00 22.2 20 Norte 24 Norte 0 -- -- 24
2020-09-04 22:00:00 22.2 24 Norte 29 Norte 0 -- -- 24
2020-09-04 21:00:00 21.8 25 Norte 31 Norte 0 -- -- 22
2020-09-04 20:00:00 22.8 23 Norte 32 Norte 0 -- -- 24
2020-09-04 19:00:00 26.9 14 Norte 30 Noroeste 0 -- -- 22
2020-09-04 18:00:00 27.1 19 Noroeste 32 Noroeste 0 -- -- 22
2020-09-04 17:00:00 29.3 20 Noroeste 41 Noroeste 0 -- -- 20
2020-09-04 16:00:00 30 27 Noroeste 48 Oeste 0 -- -- 22
2020-09-04 15:00:00 29.9 27 Oeste 42 Oeste 0 -- -- 21
2020-09-04 14:00:00 28.9 23 Oeste 39 Oeste 0 -- -- 22
2020-09-04 13:00:00 27.7 22 Oeste 37 Noroeste 0 -- -- 21
2020-09-04 12:00:00 27.1 19 Oeste 37 Oeste 0 -- -- 19
2020-09-04 11:00:00 25 25 Noroeste 32 Oeste 0 -- -- 17
2020-09-04 10:00:00 22.8 27 Noroeste 32 Noroeste 0 -- -- 21
2020-09-04 09:00:00 21.4 24 Noroeste 25 Noroeste 0 -- -- 25
2020-09-04 08:00:00 21 17 Oeste 19 Oeste 0 -- -- 25
2020-09-04 07:00:00 20.8 15 Oeste 17 Oeste 0 -- -- 24
2020-09-04 06:00:00 20.9 15 Noroeste 21 Noroeste 0 -- -- 24
2020-09-04 05:00:00 21.5 17 Noroeste 20 Noroeste 0 -- -- 23
2020-09-04 04:00:00 21.8 17 Noroeste 19 Noroeste 0 -- -- 24
2020-09-04 03:00:00 21.7 10 Noroeste 14 Noroeste 0 -- -- 22
2020-09-04 02:00:00 22 10 Noroeste 14 Norte 0 -- -- 22
2020-09-04 01:00:00 22.2 11 Norte 14 Norte 0 -- -- 22
2020-09-04 00:00:00 22.3 14 Norte 17 Norte 0 -- -- 22
2020-09-03 23:00:00 22.2 15 Norte 20 Norte 0 -- -- 22
2020-09-03 22:00:00 22.2 17 Norte 19 Norte 0 -- -- 23
2020-09-03 21:00:00 22.1 14 Norte 16 Norte 0 -- -- 20
2020-09-03 20:00:00 24.4 12 Noroeste 21 Noroeste 0 -- -- 20
2020-09-03 19:00:00 29.4 13 Noroeste 23 Noroeste 0 -- -- 30
2020-09-03 18:00:00 28.7 11 Oeste 27 Noroeste 0 -- -- 38
2020-09-03 17:00:00 29.9 16 Oeste 25 Noroeste 0 -- -- 34
2020-09-03 16:00:00 29.2 12 Oeste 21 Oeste 0 -- -- 41
2020-09-03 15:00:00 28.1 8 Oeste 19 Oeste 0 -- -- 47
2020-09-03 14:00:00 27.6 5 Norte 19 Oeste 0 -- -- 43
2020-09-03 13:00:00 27.6 6 Oeste 17 Sudoeste 0 -- -- 40
2020-09-03 12:00:00 26.2 8 Noroeste 25 Oeste 0 -- -- 22
2020-09-03 11:00:00 25.3 10 Oeste 18 Oeste 0 -- -- 19
2020-09-03 10:00:00 23.6 10 Noroeste 18 Noroeste 0 -- -- 19
2020-09-03 09:00:00 22.6 12 Noroeste 15 Noroeste 0 -- -- 15
2020-09-03 08:00:00 21.7 9 Oeste 10 Noroeste 0 -- -- 19
2020-09-03 07:00:00 21.5 4 Oeste 9 Noroeste 0 -- -- 20
2020-09-03 06:00:00 21.4 7 Noroeste 9 Noroeste 0 -- -- 20
2020-09-03 05:00:00 21.7 7 Noroeste 9 Noroeste 0 -- -- 20
2020-09-03 04:00:00 22.2 8 Noroeste 10 Noroeste 0 -- -- 17
2020-09-03 03:00:00 22.2 8 Norte 10 Norte 0 -- -- 17
2020-09-03 02:00:00 22.2 4 Norte 5 Norte 0 -- -- 18
2020-09-03 01:00:00 22.2 3 Noroeste 8 Norte 0 -- -- 18
2020-09-03 00:00:00 21.7 6 Nordeste 11 Nordeste 0 -- -- 20
2020-09-02 23:00:00 21.8 8 Nordeste 13 Nordeste 0 -- -- 21
2020-09-02 22:00:00 21.6 13 Nordeste 15 Nordeste 0 -- -- 19
2020-09-02 21:00:00 21.4 12 Norte 13 Norte 0 -- -- 22
2020-09-02 20:00:00 25.8 8 Noroeste 17 Oeste 0 -- -- 19
2020-09-02 19:00:00 31.1 12 Oeste 22 Oeste 0 -- -- 25
2020-09-02 18:00:00 30 13 Oeste 23 Oeste 0 -- -- 26
2020-09-02 17:00:00 29.8 13 Oeste 20 Oeste 0 -- -- 31
2020-09-02 16:00:00 28.8 12 Oeste 24 Oeste 0 -- -- 35
2020-09-02 15:00:00 29 6 Oeste 18 Oeste 0 -- -- 34
2020-09-02 14:00:00 28.2 7 Sudoeste 18 Oeste 0 -- -- 18
2020-09-02 13:00:00 27.6 6 Sudoeste 14 Sudoeste 0 -- -- 25
2020-09-02 12:00:00 26.8 5 Oeste 12 Oeste 0 -- -- 17
2020-09-02 11:00:00 24.7 5 Oeste 9 Noroeste 0 -- -- 15
2020-09-02 10:00:00 23 7 Sudoeste 11 Sudoeste 0 -- -- 16
2020-09-02 09:00:00 21.9 8 Sudoeste 10 Sudoeste 0 -- -- 16
2020-09-02 08:00:00 20.9 8 Sudoeste 11 Sudoeste 0 -- -- 13
2020-09-02 07:00:00 20.8 12 Sudoeste 15 Sudoeste 0 -- -- 15
2020-09-02 06:00:00 20.6 15 Sur 16 Sur 0 -- -- 12
2020-09-02 05:00:00 20.9 9 Sudeste 12 Sudeste 0 -- -- 10
2020-09-02 04:00:00 21.1 7 Sudeste 10 Este 0 -- -- 14
2020-09-02 03:00:00 21.4 9 Sudeste 12 Este 0 -- -- 10
2020-09-02 02:00:00 20.9 8 Este 9 Este 0 -- -- 7
2020-09-02 01:00:00 20.6 7 Este 12 Este 0 -- -- 7
2020-09-02 00:00:00 21.6 3 Sudoeste 10 Noroeste 0 -- -- 13
2020-09-01 23:00:00 20.1 9 Noroeste 16 Noroeste 0 -- -- 14
2020-09-01 22:00:00 19.4 15 Noroeste 18 Noroeste 0 -- -- 21
2020-09-01 21:00:00 19.1 15 Noroeste 19 Oeste 0 -- -- 23
2020-09-01 20:00:00 23 13 Noroeste 22 Oeste 0 -- -- 24
2020-09-01 19:00:00 27.4 17 Noroeste 27 Oeste 0 -- -- 27
2020-09-01 18:00:00 25.7 17 Oeste 29 Oeste 0 -- -- 30
2020-09-01 17:00:00 25.2 18 Oeste 26 Oeste 0 -- -- 29
2020-09-01 16:00:00 25.2 16 Oeste 24 Oeste 0 -- -- 30
2020-09-01 15:00:00 25.1 10 Sudoeste 18 Oeste 0 -- -- 43
2020-09-01 14:00:00 25 10 Sudoeste 18 Oeste 0 -- -- 41
2020-09-01 13:00:00 23.2 7 Oeste 13 Sudoeste 0 -- -- 56
2020-09-01 12:00:00 22.2 7 Oeste 14 Oeste 0 -- -- 37
2020-09-01 11:00:00 21 4 Sudoeste 12 Sudoeste 0 -- -- 33
2020-09-01 10:00:00 18.9 9 Sudoeste 16 Sur 0 -- -- 36
2020-09-01 09:00:00 17.6 8 Sudoeste 14 Sudoeste 0 -- -- 39
2020-09-01 08:00:00 16.3 12 Oeste 18 Oeste 0 -- -- 39
2020-09-01 07:00:00 16.2 8 Oeste 17 Oeste 0 -- -- 39
2020-09-01 06:00:00 14.5 12 Oeste 17 Oeste 0 -- -- 47
2020-09-01 05:00:00 9.9 5 Este 14 Nordeste 0 -- -- 100
2020-09-01 04:00:00 10.1 5 Norte 30 Nordeste 0 -- -- 100
2020-09-01 03:00:00 11.6 23 Nordeste 37 Nordeste 0 -- -- 100
2020-09-01 02:00:00 11.6 25 Nordeste 39 Nordeste 0 -- -- 100
2020-09-01 01:00:00 11.8 28 Nordeste 39 Nordeste 0 -- -- 100
2020-09-01 00:00:00 10.6 35 Nordeste 51 Nordeste 0 -- -- 98
2020-08-31 23:00:00 12.9 38 Nordeste 46 Nordeste 0 -- -- 57
2020-08-31 22:00:00 13.2 35 Nordeste 41 Nordeste 0 -- -- 45
2020-08-31 21:00:00 13.1 33 Nordeste 39 Nordeste 0 -- -- 54
2020-08-31 20:00:00 15.5 25 Este 35 Nordeste 0 -- -- 41
2020-08-31 19:00:00 18 17 Nordeste 27 Nordeste 0 -- -- 49
2020-08-31 18:00:00 17 14 Nordeste 26 Nordeste 0 -- -- 63
2020-08-31 17:00:00 18 6 Este 17 Nordeste 0 -- -- 63
2020-08-31 16:00:00 17.8 8 Este 21 Nordeste 0 -- -- 61
2020-08-31 15:00:00 15.6 13 Nordeste 27 Nordeste 0 -- -- 62
2020-08-31 14:00:00 13.2 17 Nordeste 33 Nordeste 0 -- -- 100
2020-08-31 13:00:00 11.9 22 Nordeste 35 Nordeste 0 -- -- 100
2020-08-31 12:00:00 11.6 24 Nordeste 35 Nordeste 0 -- -- 100
2020-08-31 11:00:00 11.1 26 Nordeste 37 Nordeste 0 -- -- 100
2020-08-31 10:00:00 10.7 24 Nordeste 36 Nordeste 0 -- -- 100
2020-08-31 09:00:00 10.1 23 Nordeste 39 Nordeste 0 -- -- 100
2020-08-31 08:00:00 10.1 31 Nordeste 49 Nordeste 0 -- -- 100
2020-08-31 07:00:00 10.2 36 Nordeste 46 Nordeste 0.2 -- -- 100
2020-08-31 06:00:00 9.6 28 Nordeste 44 Nordeste 0 -- -- 100
2020-08-31 05:00:00 9.8 38 Nordeste 54 Nordeste 0 -- -- 100
2020-08-31 04:00:00 10.1 43 Nordeste 56 Nordeste 0 -- -- 100
2020-08-31 03:00:00 9.7 44 Nordeste 62 Nordeste 0 -- -- 100
2020-08-31 02:00:00 10.6 48 Nordeste 64 Nordeste 0 -- -- 100
2020-08-31 01:00:00 9.8 45 Nordeste 60 Nordeste 0 -- -- 100
2020-08-31 00:00:00 10.1 49 Nordeste 61 Nordeste 0 -- -- 100
2020-08-30 23:00:00 9.7 44 Nordeste 65 Nordeste 0 -- -- 100
2020-08-30 22:00:00 9.8 47 Nordeste 65 Nordeste 0 -- -- 100
2020-08-30 21:00:00 9.7 44 Nordeste 66 Nordeste 0 -- -- 100
2020-08-30 20:00:00 10.1 50 Nordeste 72 Nordeste 0.2 -- -- 100
2020-08-30 19:00:00 10 52 Nordeste 71 Nordeste 0 -- -- 100
2020-08-30 18:00:00 10.3 46 Nordeste 67 Nordeste 0 -- -- 100
2020-08-30 17:00:00 10.7 54 Nordeste 75 Nordeste 0 -- -- 100
2020-08-30 16:00:00 11.6 48 Nordeste 73 Este 0 -- -- 100
2020-08-30 15:00:00 11.8 52 Nordeste 72 Nordeste 0 -- -- 100
2020-08-30 14:00:00 11.3 52 Nordeste 70 Nordeste 0 -- -- 100
2020-08-30 13:00:00 10.5 54 Nordeste 67 Nordeste 0 -- -- 100
2020-08-30 12:00:00 10.5 45 Nordeste 68 Nordeste 0 -- -- 100
2020-08-30 11:00:00 10.9 41 Nordeste 73 Nordeste 0 -- -- 100
2020-08-30 10:00:00 10.9 53 Nordeste 69 Nordeste 0 -- -- 100
2020-08-30 09:00:00 9.6 51 Nordeste 68 Nordeste 0 -- -- 100
2020-08-30 08:00:00 10.1 49 Nordeste 68 Nordeste 0.8 -- -- 100
2020-08-30 07:00:00 11.3 35 Nordeste 66 Nordeste 0.8 -- -- 100
2020-08-30 06:00:00 10 56 Nordeste 78 Nordeste 0 -- -- 100
2020-08-30 05:00:00 10.3 55 Nordeste 75 Nordeste 0.2 -- -- 100
2020-08-30 04:00:00 10.3 49 Nordeste 63 Nordeste 0 -- -- 100
2020-08-30 03:00:00 11.5 45 Nordeste 71 Nordeste 0 -- -- 100
2020-08-30 02:00:00 11.7 42 Nordeste 75 Nordeste 0.2 -- -- 100
2020-08-30 01:00:00 10.8 45 Nordeste 67 Nordeste 0 -- -- 100
2020-08-30 00:00:00 11.8 42 Nordeste 72 Nordeste 0 -- -- 100
2020-08-29 23:00:00 10.9 43 Nordeste 76 Nordeste 0 -- -- 100
2020-08-29 22:00:00 12 48 Nordeste 71 Nordeste 0 -- -- 100
2020-08-29 21:00:00 12.4 44 Nordeste 69 Nordeste 0 -- -- 100
2020-08-29 20:00:00 12.4 46 Nordeste 70 Nordeste 0 -- -- 100
2020-08-29 19:00:00 13.9 49 Nordeste 68 Nordeste 0.2 -- -- 100
2020-08-29 18:00:00 14.7 48 Nordeste 68 Nordeste 0 -- -- 100
2020-08-29 17:00:00 15.3 54 Nordeste 72 Nordeste 0 -- -- 100
2020-08-29 16:00:00 15 54 Nordeste 71 Nordeste 0 -- -- 100
2020-08-29 15:00:00 14.9 55 Nordeste 77 Nordeste 0 -- -- 100
2020-08-29 14:00:00 14.7 52 Nordeste 78 Nordeste 0 -- -- 100
2020-08-29 13:00:00 15.9 50 Nordeste 78 Nordeste 0 -- -- 77
2020-08-29 12:00:00 14.9 50 Nordeste 66 Nordeste 0 -- -- 77
2020-08-29 11:00:00 15.4 48 Nordeste 63 Nordeste 0 -- -- 56
2020-08-29 10:00:00 15.2 50 Nordeste 62 Nordeste 0 -- -- 59
2020-08-29 09:00:00 15.7 50 Nordeste 64 Nordeste 0 -- -- 51
2020-08-29 08:00:00 14.3 50 Nordeste 59 Nordeste 0 -- -- 68
2020-08-29 07:00:00 16.6 50 Nordeste 59 Nordeste 0 -- -- 39
2020-08-29 06:00:00 17.2 46 Nordeste 61 Nordeste 0 -- -- 34
2020-08-29 05:00:00 17.9 45 Nordeste 58 Nordeste 0 -- -- 31
2020-08-29 04:00:00 18.8 42 Nordeste 54 Nordeste 0 -- -- 24
2020-08-29 03:00:00 19.6 39 Nordeste 51 Nordeste 0 -- -- 23
2020-08-29 02:00:00 21.6 39 Nordeste 49 Norte 0 -- -- 16
2020-08-29 01:00:00 21.3 40 Nordeste 57 Nordeste 0 -- -- 18
2020-08-29 00:00:00 21.3 41 Nordeste 54 Nordeste 0 -- -- 18
2020-08-28 23:00:00 21.2 40 Nordeste 51 Nordeste 0 -- -- 20
2020-08-28 22:00:00 21.2 41 Nordeste 55 Nordeste 0 -- -- 19
2020-08-28 21:00:00 22.1 40 Nordeste 52 Nordeste 0 -- -- 18
2020-08-28 20:00:00 23.3 40 Nordeste 59 Nordeste 0 -- -- 15
2020-08-28 19:00:00 24.5 38 Nordeste 54 Nordeste 0 -- -- 15
2020-08-28 18:00:00 25.2 36 Nordeste 53 Nordeste 0 -- -- 17
2020-08-28 17:00:00 27.3 29 Este 46 Nordeste 0 -- -- 18
2020-08-28 16:00:00 27.7 32 Nordeste 47 Nordeste 0 -- -- 19
2020-08-28 15:00:00 27.4 35 Nordeste 52 Este 0 -- -- 19
2020-08-28 14:00:00 27.7 34 Nordeste 53 Este 0 -- -- 22
2020-08-28 13:00:00 27.9 40 Nordeste 55 Nordeste 0 -- -- 23
2020-08-28 12:00:00 28.4 39 Nordeste 59 Nordeste 0 -- -- 23
2020-08-28 11:00:00 27.5 40 Nordeste 64 Este 0 -- -- 23
2020-08-28 10:00:00 26 48 Nordeste 72 Nordeste 0 -- -- 24
2020-08-28 09:00:00 25 51 Nordeste 66 Nordeste 0 -- -- 25
2020-08-28 08:00:00 23.4 50 Nordeste 65 Nordeste 0 -- -- 27
2020-08-28 07:00:00 23.9 50 Nordeste 64 Nordeste 0 -- -- 25
2020-08-28 06:00:00 23.1 48 Nordeste 64 Nordeste 0 -- -- 27
2020-08-28 05:00:00 23.5 46 Nordeste 61 Nordeste 0 -- -- 26
2020-08-28 04:00:00 24 46 Nordeste 65 Nordeste 0 -- -- 25
2020-08-28 03:00:00 24.9 49 Nordeste 62 Nordeste 0 -- -- 23
2020-08-28 02:00:00 25.2 47 Nordeste 63 Nordeste 0 -- -- 22
2020-08-28 01:00:00 24.6 42 Nordeste 54 Nordeste 0 -- -- 24
2020-08-28 00:00:00 24.9 34 Nordeste 46 Nordeste 0 -- -- 26
2020-08-27 23:00:00 24.8 36 Nordeste 51 Nordeste 0 -- -- 27
2020-08-27 22:00:00 25.4 38 Nordeste 51 Nordeste 0 -- -- 27
2020-08-27 21:00:00 26.4 34 Nordeste 44 Nordeste 0 -- -- 23
2020-08-27 20:00:00 26.9 29 Nordeste 42 Nordeste 0 -- -- 24
2020-08-27 19:00:00 28.2 30 Nordeste 45 Nordeste 0 -- -- 23
2020-08-27 18:00:00 28.8 25 Nordeste 41 Nordeste 0 -- -- 23
2020-08-27 17:00:00 30.6 18 Nordeste 35 Nordeste 0 -- -- 24
2020-08-27 16:00:00 31.5 19 Nordeste 37 Nordeste 0 -- -- 27
2020-08-27 15:00:00 32.5 17 Nordeste 32 Este 0 -- -- 28
2020-08-27 14:00:00 32.6 19 Nordeste 33 Este 0 -- -- 29
2020-08-27 13:00:00 32.4 18 Nordeste 35 Nordeste 0 -- -- 29
2020-08-27 12:00:00 32.3 12 Nordeste 26 Este 0 -- -- 31
2020-08-27 11:00:00 29.5 17 Nordeste 29 Nordeste 0 -- -- 34
2020-08-27 10:00:00 27.3 22 Nordeste 29 Nordeste 0 -- -- 36
2020-08-27 09:00:00 26.8 19 Nordeste 22 Nordeste 0 -- -- 38
2020-08-27 08:00:00 26 18 Nordeste 21 Nordeste 0 -- -- 37
2020-08-27 07:00:00 26 16 Nordeste 18 Nordeste 0 -- -- 34
2020-08-27 06:00:00 25.7 12 Nordeste 14 Nordeste 0 -- -- 39
2020-08-27 05:00:00 26.2 12 Nordeste 14 Este 0 -- -- 39
2020-08-27 04:00:00 25.8 13 Este 17 Este 0 -- -- 41
2020-08-27 03:00:00 26.7 13 Sudeste 15 Sudeste 0 -- -- 38
2020-08-27 02:00:00 26.2 2 Sudoeste 15 Sudeste 0 -- -- 42
2020-08-27 01:00:00 25.9 7 Sudeste 14 Sur 0 -- -- 41
2020-08-27 00:00:00 25.7 13 Sur 21 Sur 0 -- -- 45
2020-08-26 23:00:00 25.8 17 Sur 24 Sur 0 -- -- 40
2020-08-26 22:00:00 26 19 Sur 26 Sur 0 -- -- 35
2020-08-26 21:00:00 26 21 Sur 29 Sur 0 -- -- 38
2020-08-26 20:00:00 26.4 17 Sur 30 Sur 0 -- -- 40
2020-08-26 19:00:00 28.5 15 Sur 32 Sur 0 -- -- 38
2020-08-26 18:00:00 28.5 15 Sudeste 26 Sur 0 -- -- 40
2020-08-26 17:00:00 29 18 Sudeste 30 Sudeste 0 -- -- 40
2020-08-26 16:00:00 29.7 20 Sudeste 45 Sudeste 0 -- -- 38
2020-08-26 15:00:00 28.4 39 Sudeste 49 Sudeste 0 -- -- 40
2020-08-26 14:00:00 30.3 29 Sudeste 45 Este 0 -- -- 35
2020-08-26 13:00:00 30.2 32 Este 45 Este 0 -- -- 34
2020-08-26 12:00:00 29.3 30 Este 48 Sudeste 0 -- -- 34
2020-08-26 11:00:00 28.8 34 Este 53 Este 0 -- -- 29
2020-08-26 10:00:00 28.4 39 Este 62 Este 0 -- -- 24
2020-08-26 09:00:00 28.2 35 Este 64 Este 0 -- -- 22
2020-08-26 08:00:00 27.9 41 Este 64 Este 0 -- -- 20
2020-08-26 07:00:00 28.2 26 Este 37 Este 0 -- -- 18
2020-08-26 06:00:00 28.5 27 Este 35 Este 0 -- -- 19
2020-08-26 05:00:00 28.3 20 Este 26 Este 0 -- -- 17
2020-08-26 04:00:00 28.5 18 Este 25 Este 0 -- -- 15
2020-08-26 03:00:00 28.2 21 Este 28 Este 0 -- -- 16
2020-08-26 02:00:00 27.1 21 Nordeste 26 Este 0 -- -- 22
2020-08-26 01:00:00 27 22 Nordeste 27 Este 0 -- -- 23
2020-08-26 00:00:00 27.1 24 Este 36 Este 0 -- -- 22
2020-08-25 23:00:00 27.3 24 Este 33 Este 0 -- -- 23
2020-08-25 22:00:00 27.4 21 Este 32 Este 0 -- -- 23
2020-08-25 21:00:00 27.8 21 Este 29 Este 0 -- -- 23
2020-08-25 20:00:00 28.5 17 Sudeste 24 Sudeste 0 -- -- 23
2020-08-25 19:00:00 30.3 17 Sudeste 24 Sudeste 0 -- -- 21
2020-08-25 18:00:00 31.8 14 Sudeste 25 Sudeste 0 -- -- 20
2020-08-25 17:00:00 33.2 13 Sudeste 28 Sur 0 -- -- 18
2020-08-25 16:00:00 33.5 16 Sudeste 32 Sudeste 0 -- -- 18
2020-08-25 15:00:00 33.3 19 Sudeste 33 Sudeste 0 -- -- 18
2020-08-25 14:00:00 32.6 19 Sudeste 32 Sudeste 0 -- -- 20
2020-08-25 13:00:00 32 22 Sudeste 39 Este 0 -- -- 20
2020-08-25 12:00:00 30.7 25 Este 42 Sudeste 0 -- -- 21
2020-08-25 11:00:00 30 24 Este 38 Este 0 -- -- 21
2020-08-25 10:00:00 29.7 19 Este 30 Este 0 -- -- 21
2020-08-25 09:00:00 27.5 13 Sudeste 19 Sudeste 0 -- -- 22
2020-08-25 08:00:00 26.3 8 Este 12 Nordeste 0 -- -- 23
2020-08-25 07:00:00 26.1 11 Nordeste 15 Nordeste 0 -- -- 22
2020-08-25 06:00:00 24.5 15 Nordeste 26 Nordeste 0 -- -- 23
2020-08-25 05:00:00 20.2 26 Nordeste 49 Nordeste 0 -- -- 29
2020-08-25 04:00:00 18.9 40 Nordeste 57 Nordeste 0 -- -- 32
2020-08-25 03:00:00 19.1 46 Nordeste 58 Nordeste 0 -- -- 32
2020-08-25 02:00:00 19.6 45 Nordeste 58 Nordeste 0 -- -- 28
2020-08-25 01:00:00 19.7 46 Nordeste 59 Nordeste 0 -- -- 27
2020-08-25 00:00:00 19.5 44 Nordeste 58 Nordeste 0 -- -- 29
2020-08-24 23:00:00 19.3 45 Nordeste 60 Nordeste 0 -- -- 30
2020-08-24 22:00:00 19.2 42 Nordeste 55 Nordeste 0 -- -- 30
2020-08-24 21:00:00 19.3 39 Nordeste 51 Nordeste 0 -- -- 31
2020-08-24 20:00:00 20.3 33 Nordeste 45 Nordeste 0 -- -- 29
2020-08-24 19:00:00 20.6 34 Nordeste 44 Nordeste 0 -- -- 33
2020-08-24 18:00:00 21.5 30 Nordeste 37 Nordeste 0 -- -- 36
2020-08-24 17:00:00 23.5 23 Nordeste 36 Nordeste 0 -- -- 38
2020-08-24 16:00:00 22.2 30 Nordeste 42 Nordeste 0 -- -- 38
2020-08-24 15:00:00 22.6 28 Nordeste 37 Nordeste 0 -- -- 37
2020-08-24 14:00:00 23.1 26 Nordeste 40 Nordeste 0 -- -- 37
2020-08-24 13:00:00 22.8 27 Nordeste 41 Nordeste 0 -- -- 37
2020-08-24 12:00:00 23 24 Nordeste 32 Nordeste 0 -- -- 34
2020-08-24 11:00:00 26.3 13 Este 31 Nordeste 0 -- -- 20
2020-08-24 10:00:00 21.5 24 Nordeste 40 Nordeste 0 -- -- 25
2020-08-24 09:00:00 19 35 Nordeste 50 Nordeste 0 -- -- 26
2020-08-24 08:00:00 16.8 44 Nordeste 52 Nordeste 0 -- -- 19
2020-08-24 07:00:00 19 46 Nordeste 54 Nordeste 0 -- -- 22
2020-08-24 06:00:00 19 45 Nordeste 55 Nordeste 0 -- -- 30
2020-08-24 05:00:00 18.9 43 Nordeste 53 Nordeste 0 -- -- 33
2020-08-24 04:00:00 18.9 40 Nordeste 47 Nordeste 0 -- -- 32
2020-08-24 03:00:00 18.6 38 Nordeste 44 Nordeste 0 -- -- 31
2020-08-24 02:00:00 20.5 31 Nordeste 37 Nordeste 0 -- -- 30
2020-08-24 01:00:00 20.5 31 Nordeste 35 Nordeste 0 -- -- 30
2020-08-24 00:00:00 22.8 28 Nordeste 31 Nordeste 0 -- -- 19
2020-08-23 23:00:00 23.5 27 Nordeste 37 Nordeste 0 -- -- 19
2020-08-23 22:00:00 23.6 33 Nordeste 39 Nordeste 0 -- -- 19
2020-08-23 21:00:00 23.7 33 Nordeste 43 Nordeste 0 -- -- 19
2020-08-23 20:00:00 24.2 32 Nordeste 47 Nordeste 0 -- -- 19
2020-08-23 19:00:00 24.8 31 Nordeste 49 Nordeste 0 -- -- 20
2020-08-23 18:00:00 25 34 Nordeste 54 Nordeste 0 -- -- 21
2020-08-23 17:00:00 25.6 35 Nordeste 54 Este 0 -- -- 22
2020-08-23 16:00:00 26.2 36 Nordeste 57 Nordeste 0 -- -- 22
2020-08-23 15:00:00 26.8 35 Nordeste 60 Nordeste 0 -- -- 22
2020-08-23 14:00:00 26.7 35 Nordeste 56 Nordeste 0 -- -- 21
2020-08-23 13:00:00 26.2 40 Nordeste 58 Nordeste 0 -- -- 21
2020-08-23 12:00:00 25.3 40 Nordeste 62 Nordeste 0 -- -- 22
2020-08-23 11:00:00 24.8 42 Nordeste 58 Este 0 -- -- 23
2020-08-23 10:00:00 23.9 45 Nordeste 61 Nordeste 0 -- -- 24
2020-08-23 09:00:00 22.9 48 Nordeste 64 Nordeste 0 -- -- 24
2020-08-23 08:00:00 22.3 50 Nordeste 62 Nordeste 0 -- -- 25
2020-08-23 07:00:00 21.8 49 Nordeste 64 Nordeste 0 -- -- 25
2020-08-23 06:00:00 22.2 49 Nordeste 64 Nordeste 0 -- -- 25
2020-08-23 05:00:00 22.5 50 Nordeste 66 Nordeste 0 -- -- 24
2020-08-23 04:00:00 22.5 51 Nordeste 67 Nordeste 0 -- -- 24
2020-08-23 03:00:00 22.6 51 Nordeste 66 Nordeste 0 -- -- 23
2020-08-23 02:00:00 22.5 52 Nordeste 72 Nordeste 0 -- -- 22
2020-08-23 01:00:00 22.8 51 Nordeste 67 Nordeste 0 -- -- 24
2020-08-23 00:00:00 22.8 49 Nordeste 70 Este 0 -- -- 24
2020-08-22 23:00:00 22.7 49 Nordeste 63 Nordeste 0 -- -- 26
2020-08-22 22:00:00 22.9 49 Nordeste 66 Nordeste 0 -- -- 23
2020-08-22 21:00:00 23.5 45 Nordeste 60 Nordeste 0 -- -- 18
2020-08-22 20:00:00 24.2 41 Nordeste 56 Nordeste 0 -- -- 16
2020-08-22 19:00:00 25.1 38 Nordeste 53 Nordeste 0 -- -- 18
2020-08-22 18:00:00 26.7 28 Nordeste 39 Nordeste 0 -- -- 19
2020-08-22 17:00:00 27.7 24 Nordeste 40 Nordeste 0 -- -- 19
2020-08-22 16:00:00 28.3 23 Nordeste 32 Nordeste 0 -- -- 19
2020-08-22 15:00:00 33.2 12 Nordeste 20 Nordeste 0 -- -- 21
2020-08-22 14:00:00 34.7 4 Oeste 16 Sudoeste 0 -- -- 21
2020-08-22 13:00:00 33.7 4 Noroeste 15 Sudeste 0 -- -- 22
2020-08-22 12:00:00 32.6 5 Nordeste 15 Este 0 -- -- 22
2020-08-22 11:00:00 31.2 11 Este 19 Este 0 -- -- 23
2020-08-22 10:00:00 28.7 13 Este 18 Este 0 -- -- 25
2020-08-22 09:00:00 26.6 15 Este 16 Este 0 -- -- 28
2020-08-22 08:00:00 26 14 Este 18 Este 0 -- -- 27
2020-08-22 07:00:00 26 16 Nordeste 29 Nordeste 0 -- -- 21
2020-08-22 06:00:00 23.2 27 Nordeste 35 Nordeste 0 -- -- 11
2020-08-22 05:00:00 22.9 31 Nordeste 37 Nordeste 0 -- -- 11
2020-08-22 04:00:00 22.8 26 Nordeste 30 Nordeste 0 -- -- 12
2020-08-22 03:00:00 24.9 14 Nordeste 19 Nordeste 0 -- -- 17
2020-08-22 02:00:00 26.3 13 Este 18 Este 0 -- -- 26
2020-08-22 01:00:00 26.3 13 Este 19 Nordeste 0 -- -- 19
2020-08-22 00:00:00 26.3 17 Nordeste 20 Nordeste 0 -- -- 20
2020-08-21 23:00:00 26.1 17 Este 31 Sudeste 0 -- -- 23
2020-08-21 22:00:00 25.3 26 Sudeste 35 Sudeste 0 -- -- 9
2020-08-21 21:00:00 24.7 22 Sudeste 32 Sudeste 0 -- -- 12
2020-08-21 20:00:00 24.5 19 Este 22 Este 0 -- -- 18
2020-08-21 19:00:00 27.6 6 Sur 22 Sur 0 -- -- 21
2020-08-21 18:00:00 29.7 5 Nordeste 17 Nordeste 0 -- -- 27
2020-08-21 17:00:00 31.6 6 Oeste 17 Nordeste 0 -- -- 28
2020-08-21 16:00:00 30.9 6 Nordeste 18 Sur 0 -- -- 30
2020-08-21 15:00:00 30.8 6 Sudoeste 17 Nordeste 0 -- -- 32
2020-08-21 14:00:00 31.3 5 Nordeste 23 Sudeste 0 -- -- 25
2020-08-21 13:00:00 30.7 4 Oeste 14 Oeste 0 -- -- 22
2020-08-21 12:00:00 31 4 Nordeste 18 Este 0 -- -- 15
2020-08-21 11:00:00 29.3 12 Este 22 Este 0 -- -- 16
2020-08-21 10:00:00 27.5 12 Este 19 Sudeste 0 -- -- 14
2020-08-21 09:00:00 26.6 11 Este 17 Nordeste 0 -- -- 17
2020-08-21 08:00:00 24.2 12 Este 15 Este 0 -- -- 16
2020-08-21 07:00:00 24.2 15 Este 19 Este 0 -- -- 15
2020-08-21 06:00:00 23.5 16 Este 22 Este 0 -- -- 15
2020-08-21 05:00:00 22.2 19 Este 24 Este 0 -- -- 19
2020-08-21 04:00:00 23.5 13 Nordeste 22 Nordeste 0 -- -- 15
2020-08-21 03:00:00 22.5 18 Nordeste 22 Nordeste 0 -- -- 12
2020-08-21 02:00:00 23.3 19 Nordeste 24 Nordeste 0 -- -- 11
2020-08-21 01:00:00 23.3 23 Nordeste 24 Nordeste 0 -- -- 11
2020-08-21 00:00:00 22.2 23 Nordeste 25 Nordeste 0 -- -- 12